Total_Precipitation_Accumulation
0.77 0.71 0.59 0.62 0.57 0.60 0.66 0.70 0.73 0.72 0.76 0.75 0.75 0.75 0.77 0.73 0.68 0.66 0.80 0.98 1.36 1.54 1.34 1.10 0.90 0.79 0.77 0.77 0.79 0.98 1.17 1.32 1.32 1.39 1.48 1.60 1.50 1.32 1.19 1.07 1.10 1.13 1.03
0.71 0.74 0.69 0.70 0.71 0.69 0.69 0.69 0.67 0.77 0.81 0.79 0.77 0.77 0.78 0.69 0.68 0.76 0.90 0.96 0.99 1.18 1.47 1.44 1.27 1.07 0.94 0.85 0.83 0.94 1.10 1.21 1.20 1.29 1.37 1.45 1.37 1.15 1.04 1.00 1.16 1.02 0.88
0.68 0.74 0.76 0.77 0.79 0.79 0.79 0.80 0.80 0.86 0.82 0.82 0.83 0.78 0.73 0.68 0.68 0.76 0.80 0.86 0.71 0.66 0.95 1.32 1.47 1.34 1.23 1.11 0.97 0.99 1.04 1.15 1.11 1.24 1.32 1.35 1.19 1.06 0.97 1.01 1.09 0.97 0.84
0.71 0.79 0.81 0.85 0.91 0.83 0.80 0.87 0.92 0.96 0.92 0.92 0.93 0.81 0.68 0.70 0.70 0.75 0.84 0.85 0.79 0.62 0.65 0.76 0.94 1.08 1.32 1.43 1.24 1.18 1.11 1.06 1.03 1.17 1.25 1.17 1.00 0.94 0.95 1.00 0.98 0.91 0.85
0.88 0.96 0.99 1.03 1.05 1.07 0.99 0.88 0.90 0.97 1.03 1.04 0.96 0.89 0.75 0.74 0.78 0.79 0.96 0.97 0.87 0.75 0.73 0.59 0.57 0.65 0.87 1.19 1.28 1.31 1.21 1.06 0.99 1.05 1.09 0.96 0.89 0.83 0.83 0.87 0.83 0.77 0.77
1.16 1.26 1.24 1.19 1.26 1.34 1.35 1.14 1.18 1.12 1.07 1.12 1.04 0.96 0.91 0.86 0.87 0.92 0.97 1.02 1.04 0.89 0.86 0.71 0.59 0.44 0.53 0.79 1.03 1.20 1.31 1.20 1.05 1.04 1.06 0.87 0.80 0.79 0.72 0.70 0.72 0.71 0.69
1.49 1.65 1.61 1.60 1.60 1.58 1.54 1.48 1.60 1.53 1.26 1.17 1.32 1.28 1.15 1.00 0.95 0.94 0.94 1.04 1.14 1.13 1.13 0.97 0.82 0.62 0.46 0.49 0.59 0.83 1.14 1.34 1.28 1.18 1.18 1.03 0.81 0.73 0.73 0.71 0.69 0.70 0.73
1.72 1.76 1.95 2.05 2.02 2.11 2.09 1.90 2.03 2.03 1.67 1.42 1.60 1.85 1.60 1.40 1.03 0.93 0.96 0.99 1.11 1.23 1.29 1.15 0.95 0.79 0.68 0.61 0.44 0.52 0.73 1.16 1.36 1.26 1.27 1.24 0.95 0.75 0.68 0.69 0.69 0.69 0.71
1.88 1.89 2.00 2.17 2.19 2.25 2.32 2.39 2.33 2.40 2.18 1.81 1.70 1.95 1.78 1.65 1.46 1.04 0.96 1.07 1.19 1.29 1.37 1.39 1.25 0.99 0.91 0.86 0.64 0.47 0.53 0.73 1.11 1.25 1.25 1.28 1.07 0.83 0.70 0.66 0.66 0.66 0.68
2.07 2.13 2.15 2.25 2.27 2.29 2.38 2.48 2.44 2.55 2.59 2.21 1.95 1.74 1.55 1.54 1.62 1.37 1.14 1.11 1.28 1.34 1.37 1.43 1.44 1.27 1.07 1.06 0.90 0.68 0.60 0.61 0.86 1.21 1.35 1.30 1.17 1.01 0.82 0.73 0.67 0.65 0.69
2.17 2.20 2.27 2.42 2.41 2.38 2.35 2.56 2.62 2.69 2.61 2.52 2.36 2.19 2.02 1.77 1.42 1.47 1.47 1.32 1.26 1.19 1.26 1.40 1.54 1.47 1.30 1.22 1.23 0.93 0.66 0.52 0.59 1.00 1.32 1.43 1.32 1.24 1.08 0.94 0.83 0.75 0.71
2.20 2.10 2.02 2.16 2.22 2.25 2.24 2.41 2.59 2.71 2.70 2.71 2.61 2.31 2.22 2.09 1.73 1.66 1.52 1.41 1.42 1.25 1.19 1.25 1.32 1.31 1.34 1.30 1.24 1.21 0.89 0.61 0.49 0.67 1.03 1.21 1.31 1.39 1.35 1.23 1.12 0.99 0.85
2.02 2.05 1.95 1.95 1.98 1.93 1.97 2.08 2.14 2.22 2.36 2.51 2.42 2.19 2.14 1.98 1.95 1.95 1.83 1.59 1.41 1.21 1.22 1.20 1.19 1.17 1.16 1.19 1.28 1.39 1.03 0.72 0.51 0.48 0.65 0.83 0.94 1.14 1.34 1.44 1.39 1.30 1.20
1.72 1.80 1.80 1.75 1.79 1.83 1.84 1.91 1.92 1.92 1.95 2.02 2.02 2.09 2.13 2.00 1.93 1.84 1.84 1.97 1.73 1.49 1.36 1.24 1.22 1.20 1.14 1.15 1.32 1.40 1.07 0.84 0.61 0.50 0.46 0.52 0.63 0.83 1.05 1.30 1.43 1.51 1.47
1.28 1.34 1.44 1.51 1.61 1.66 1.72 1.85 1.91 1.90 1.86 1.83 1.93 1.98 1.92 1.90 1.88 1.78 1.73 1.82 1.88 1.74 1.63 1.46 1.31 1.23 1.24 1.21 1.32 1.14 1.07 0.97 0.76 0.67 0.57 0.49 0.49 0.57 0.68 0.90 1.09 1.14 1.20
0.94 1.00 1.11 1.28 1.50 1.62 1.66 1.73 1.78 1.86 1.89 1.85 1.92 2.01 2.01 2.02 2.04 1.96 1.83 1.78 1.72 1.75 1.67 1.46 1.26 1.17 1.30 1.20 1.30 1.13 1.09 1.21 0.96 0.79 0.71 0.63 0.56 0.53 0.53 0.62 0.75 0.78 0.77
0.78 0.89 0.95 1.09 1.25 1.43 1.61 1.76 1.77 1.76 1.80 1.78 1.72 1.80 1.90 2.01 2.12 2.14 2.11 1.97 1.83 1.80 1.71 1.55 1.34 1.20 1.33 1.38 1.31 1.26 1.17 1.08 1.02 0.93 0.82 0.80 0.73 0.60 0.58 0.60 0.68 0.69 0.66
0.62 0.71 0.84 1.05 1.16 1.25 1.30 1.38 1.46 1.49 1.52 1.56 1.55 1.52 1.60 1.72 1.86 2.00 2.08 2.02 2.01 1.92 1.82 1.78 1.59 1.34 1.24 1.31 1.35 1.42 1.35 1.15 1.06 1.10 1.03 0.94 0.88 0.74 0.65 0.60 0.64 0.64 0.61
0.61 0.66 0.80 0.95 1.01 1.06 1.10 1.12 1.22 1.30 1.31 1.29 1.34 1.31 1.33 1.43 1.57 1.69 1.77 1.85 1.97 2.01 2.00 1.90 1.80 1.60 1.37 1.38 1.42 1.41 1.43 1.50 1.27 1.16 1.17 1.13 1.06 0.97 0.89 0.77 0.71 0.67 0.61
0.62 0.69 0.84 0.94 0.95 0.91 1.00 1.03 1.08 1.12 1.09 1.04 1.07 1.08 1.13 1.17 1.24 1.36 1.50 1.71 1.90 2.01 2.08 2.06 1.97 1.74 1.55 1.53 1.51 1.49 1.54 1.60 1.57 1.36 1.25 1.18 1.23 1.17 1.05 0.93 0.85 0.79 0.72
0.64 0.71 0.76 0.87 0.92 0.90 0.93 0.99 0.98 0.93 0.92 0.91 0.87 0.78 0.80 0.86 0.87 0.95 1.01 1.29 1.54 1.76 1.90 1.98 1.95 1.81 1.60 1.48 1.37 1.41 1.53 1.68 1.75 1.70 1.60 1.34 1.26 1.21 1.16 1.09 0.99 0.89 0.82
0.53 0.58 0.64 0.80 0.91 0.82 0.93 0.92 0.85 0.78 0.75 0.79 0.76 0.69 0.67 0.71 0.62 0.59 0.63 0.85 1.14 1.34 1.53 1.71 1.77 1.65 1.52 1.43 1.47 1.48 1.47 1.51 1.54 1.47 1.46 1.48 1.40 1.30 1.21 1.14 1.14 1.09 1.01
0.47 0.52 0.56 0.73 0.83 0.91 0.85 0.70 0.74 0.74 0.74 0.77 0.79 0.80 0.73 0.69 0.76 0.67 0.62 0.69 0.77 0.89 1.04 1.31 1.53 1.52 1.61 1.53 1.44 1.39 1.39 1.42 1.43 1.49 1.49 1.49 1.39 1.28 1.16 1.13 1.26 1.18 1.14
0.44 0.49 0.55 0.59 0.67 0.80 0.74 0.59 0.63 0.63 0.74 0.81 0.84 0.93 0.94 0.87 0.85 0.92 0.87 0.88 0.85 0.78 0.84 0.77 0.98 1.36 1.50 1.55 1.49 1.51 1.59 1.51 1.40 1.44 1.45 1.46 1.40 1.29 1.15 1.06 1.15 1.07 0.99
0.48 0.50 0.55 0.58 0.64 0.68 0.64 0.57 0.60 0.67 0.80 0.82 0.79 0.90 0.94 0.88 0.92 0.98 1.11 1.17 1.09 0.94 1.04 1.05 0.97 1.08 1.22 1.28 1.38 1.47 1.51 1.43 1.38 1.32 1.22 1.20 1.15 1.18 1.24 1.15 1.10 1.13 1.02
0.47 0.48 0.47 0.47 0.52 0.55 0.60 0.50 0.61 0.73 0.78 0.80 0.81 0.87 1.01 0.93 0.90 0.88 0.97 1.11 1.10 0.98 0.85 0.89 0.86 0.76 0.71 0.82 1.01 1.17 1.43 1.52 1.45 1.35 1.18 1.12 1.14 1.10 1.13 1.08 0.99 1.02 1.00